Temperature
9 10 10 10 11 11 11 11 12 12 12 12 12 12 12 13 13 13 12 13 14 14 15 15 15 15 15 15 15 15 15 16 16 16 16 16 16 16 15 16 16 16 16
6 7 8 9 9 10 10 11 11 11 11 12 12 12 12 12 12 12 12 12 13 13 14 15 15 15 15 15 15 15 15 16 16 16 16 16 16 15 15 16 16 16 16
4 4 5 6 6 8 8 9 10 10 10 11 11 12 12 12 12 12 12 12 12 13 13 14 14 15 15 15 15 15 15 15 16 16 16 16 15 15 15 15 16 16 16
2 3 3 3 4 5 6 6 7 8 9 10 10 11 11 11 12 12 12 12 12 12 12 13 14 14 15 15 15 15 15 15 15 15 16 15 15 15 15 15 16 16 16
1 2 2 2 3 3 4 4 5 6 7 8 9 10 10 11 11 11 12 12 12 12 12 12 13 13 14 14 15 15 15 15 15 15 15 15 15 15 15 15 15 15 16
0 0 0 1 2 2 3 3 3 4 5 6 7 9 10 10 10 11 11 12 12 12 12 12 12 13 13 14 14 14 15 15 15 15 15 15 15 15 15 15 15 15 15
-2 -2 -1 -1 -0 1 1 2 2 3 4 4 5 7 9 10 10 10 11 11 11 12 12 12 12 12 12 13 13 14 14 14 14 14 15 15 15 15 15 15 15 15 15
-3 -4 -3 -3 -3 -2 -1 0 1 1 2 2 3 5 8 10 11 10 10 11 11 11 11 12 12 12 12 12 13 13 14 14 14 14 14 14 14 14 15 14 14 14 14
-4 -5 -5 -5 -5 -4 -4 -3 -2 -2 -1 1 1 2 6 10 11 11 11 11 11 11 11 11 12 12 12 12 12 13 13 14 14 14 14 14 14 14 14 14 14 14 14
-5 -6 -6 -6 -6 -5 -5 -5 -4 -4 -3 -2 -0 1 3 5 7 10 10 10 10 11 11 11 11 12 12 12 12 13 13 13 13 14 14 14 14 14 14 14 14 14 14
-6 -6 -7 -7 -6 -6 -6 -5 -4 -4 -3 -3 -2 -1 1 3 5 6 9 10 10 10 10 11 11 11 11 12 12 13 13 13 13 14 14 14 14 14 14 13 13 13 13
-8 -7 -7 -7 -7 -6 -6 -5 -4 -4 -3 -3 -2 -2 -1 1 3 5 7 8 9 10 10 10 11 11 11 11 12 13 13 13 13 13 13 14 14 14 13 13 13 13 13
-9 -8 -8 -8 -7 -6 -6 -5 -4 -4 -3 -3 -2 -2 -1 -0 1 3 5 7 8 9 9 9 10 11 11 11 11 12 12 13 13 13 13 13 13 13 13 13 13 13 13
-10 -9 -9 -8 -7 -7 -6 -5 -5 -4 -3 -2 -2 -2 -1 -0 1 2 4 5 7 8 8 9 9 10 11 11 11 11 12 12 13 13 13 13 13 13 13 13 12 12 12
-10 -10 -9 -8 -7 -7 -6 -6 -6 -5 -3 -2 -2 -1 -1 -0 1 2 3 4 5 6 7 8 8 9 10 10 10 11 11 12 12 13 13 12 12 12 12 12 12 12 11
-11 -10 -9 -8 -8 -7 -7 -6 -6 -5 -4 -3 -1 -1 -0 0 1 2 3 3 4 5 6 7 8 8 10 10 10 10 10 11 11 12 12 12 12 12 12 12 11 11 11
-12 -11 -10 -9 -8 -8 -7 -7 -7 -6 -5 -3 -2 -1 -0 0 1 2 2 3 4 4 5 6 6 7 9 9 9 9 9 9 10 10 10 11 11 11 11 11 10 10 9
-12 -12 -11 -9 -9 -8 -8 -7 -7 -6 -6 -4 -3 -2 -1 -1 0 1 2 2 3 3 4 5 5 7 8 9 9 8 8 8 8 8 9 9 9 9 9 9 8 8 8
-13 -12 -11 -10 -9 -8 -8 -7 -7 -7 -6 -6 -5 -4 -3 -2 -1 -0 1 2 2 3 3 4 5 6 7 8 8 8 8 7 7 7 7 7 7 7 7 7 6 6 7
-13 -13 -12 -11 -11 -9 -8 -8 -8 -7 -7 -6 -6 -5 -4 -3 -2 -1 -0 1 2 2 3 3 4 5 7 7 7 7 7 6 6 6 6 6 6 6 6 6 6 6 6
-14 -13 -13 -12 -11 -10 -9 -8 -8 -8 -8 -7 -7 -6 -5 -4 -3 -2 -1 -0 1 2 2 3 4 4 5 6 6 6 6 6 6 6 5 5 5 5 5 5 6 6 6
-14 -14 -13 -13 -12 -11 -10 -9 -8 -9 -9 -8 -8 -7 -6 -5 -4 -3 -2 -1 -0 1 1 2 3 3 4 5 5 5 5 5 5 5 4 4 4 4 5 5 5 5 5
-14 -14 -14 -14 -13 -12 -11 -9 -9 -9 -9 -9 -8 -8 -7 -7 -5 -4 -3 -2 -1 -1 -0 0 1 2 3 4 4 5 5 5 4 4 4 4 4 4 4 4 4 4 5
-15 -15 -14 -14 -13 -12 -11 -10 -9 -9 -9 -9 -8 -8 -8 -8 -7 -6 -5 -4 -3 -3 -2 -1 -1 -0 1 2 3 4 4 4 4 4 4 3 3 3 3 3 3 3 4
-15 -15 -14 -14 -13 -13 -12 -10 -9 -9 -9 -9 -9 -8 -8 -8 -8 -7 -6 -6 -5 -5 -4 -3 -2 -2 -1 0 2 2 3 3 3 3 3 3 2 2 2 2 2 2 3
-15 -14 -14 -14 -13 -13 -12 -10 -10 -9 -9 -9 -9 -9 -9 -9 -9 -8 -8 -8 -7 -7 -6 -5 -4 -3 -2 -1 -0 1 1 2 3 2 2 2 1 1 1 1 1 1 2
Wind_Speed
16 17 16 16 17 17 16 13 11 12 12 11 12 12 13 13 13 12 9 10 13 14 15 16 16 17 18 22 24 22 20 19 18 17 15 14 12 11 10 10 11 11 10
18 17 15 15 15 17 18 16 15 13 11 10 12 13 13 14 14 13 13 11 14 16 16 16 17 18 18 20 23 24 23 21 20 19 17 16 15 13 12 12 11 11 11
21 19 15 13 15 18 18 16 16 13 11 11 12 13 13 13 14 14 14 12 12 15 17 17 18 19 20 20 22 24 24 23 22 21 19 18 17 16 15 14 13 12 12
21 19 15 13 17 17 14 12 13 13 13 12 12 11 11 12 15 15 14 13 13 12 14 18 19 19 20 21 22 24 26 25 24 22 21 19 18 17 16 15 14 14 13
21 19 15 15 18 15 12 12 12 13 14 14 13 13 12 12 13 13 15 14 14 13 13 13 18 19 20 21 22 24 25 26 25 24 23 22 20 19 18 17 16 15 14
21 19 15 17 18 13 12 13 15 14 13 14 14 15 14 14 13 13 14 13 13 14 15 14 13 16 21 21 22 23 25 25 25 25 25 24 23 21 19 18 17 16 15
21 19 15 16 16 14 16 16 14 15 13 12 13 14 16 17 17 14 14 14 14 14 14 14 14 13 13 19 22 23 25 25 24 25 26 25 25 23 22 20 18 17 16
23 19 17 14 15 15 17 16 15 12 12 10 8 10 11 14 15 15 15 14 15 13 14 14 14 14 14 13 15 22 24 25 24 24 25 26 26 25 24 22 20 19 17
23 21 20 17 16 14 14 17 16 15 13 13 10 7 8 10 10 12 15 15 15 14 14 14 15 15 16 15 14 18 22 25 26 25 25 25 27 28 26 25 23 21 19
22 22 21 20 17 15 16 16 16 14 14 13 12 11 12 11 10 11 10 11 13 15 15 13 14 15 16 15 15 14 18 23 27 26 25 25 27 29 29 27 25 23 20
20 21 21 20 18 15 17 17 17 16 13 13 13 12 13 13 14 12 14 12 10 11 12 13 12 13 15 16 15 16 17 19 24 27 26 26 27 29 30 29 27 25 22
16 20 22 20 19 16 17 18 17 18 15 15 14 13 13 11 11 11 15 16 15 12 11 10 11 11 12 13 16 15 17 19 20 23 24 26 26 28 30 30 28 25 24
16 19 20 19 18 18 18 17 17 17 16 16 15 14 14 14 14 14 14 15 16 14 11 11 10 10 10 11 13 15 17 19 20 21 21 22 24 26 30 31 29 27 25
17 21 21 20 21 20 18 16 16 17 15 15 16 16 14 14 14 14 15 14 14 13 13 14 10 11 10 10 12 15 15 19 20 21 21 22 23 25 27 29 28 28 26
18 22 21 19 19 19 18 17 14 16 16 16 15 16 15 14 14 14 14 14 14 14 15 15 11 11 10 9 10 12 13 14 18 19 21 23 23 23 24 26 26 25 25
21 21 20 20 19 18 18 16 16 16 16 16 12 12 12 12 12 12 13 13 13 13 13 10 10 9 10 8 10 11 10 13 14 15 16 18 21 24 27 28 28 27 26
21 21 21 20 20 19 18 16 16 17 17 16 14 11 9 9 8 9 11 12 12 12 14 10 7 7 10 10 9 8 10 10 12 17 19 21 23 25 27 28 27 26 26
20 20 20 20 20 20 19 17 17 17 16 16 16 14 13 11 11 8 9 11 12 12 13 13 9 8 10 12 11 11 9 8 10 17 21 22 23 24 24 25 25 24 24
20 20 19 20 20 20 20 17 15 15 15 15 15 15 14 14 13 9 9 9 10 10 11 11 10 8 6 9 12 11 12 10 10 15 19 21 22 23 24 25 25 24 24
20 20 20 19 19 20 19 17 12 13 14 14 14 14 14 15 14 11 7 7 6 9 10 10 9 9 8 9 12 13 12 10 10 11 12 15 19 21 22 24 25 25 25
19 19 19 20 20 18 18 21 10 11 13 14 14 14 14 18 21 16 10 6 4 2 3 6 8 8 8 11 12 11 14 12 10 10 12 11 13 12 14 18 21 23 23
19 19 19 19 20 17 27 30 17 11 11 13 13 14 14 16 19 22 24 23 19 9 5 2 3 7 7 7 7 11 14 14 8 6 11 10 11 11 10 13 18 21 22
18 18 19 19 19 21 28 30 24 13 11 12 13 13 12 14 17 14 19 24 25 28 22 11 10 7 6 6 4 10 11 12 8 5 10 7 7 9 7 11 21 22 22
16 16 18 19 19 20 27 29 25 11 10 11 12 13 13 15 15 15 14 16 17 20 21 16 14 14 13 10 8 5 8 10 8 6 4 5 5 7 10 13 18 21 22
16 16 16 18 18 19 25 29 20 8 8 10 11 13 14 15 21 20 15 15 16 15 20 26 27 26 29 28 18 7 5 8 5 4 5 4 5 5 6 8 13 18 19
15 16 16 16 17 17 23 26 20 7 8 8 9 12 18 20 22 22 16 15 15 14 14 17 20 22 21 23 25 16 8 5 5 3 4 3 5 5 5 4 6 9 14
Wind_Direction
345 342 337 337 335 336 332 326 316 308 296 282 271 263 259 257 255 251 244 218 235 244 246 246 246 244 239 228 220 214 212 211 210 207 201 196 193 190 185 181 177 176 176
341 337 332 332 332 333 329 321 314 306 295 285 277 269 262 258 256 255 253 235 227 240 245 243 242 242 239 232 222 215 214 211 210 209 205 201 197 192 189 184 180 179 179
342 336 330 329 332 329 325 322 317 310 299 289 279 275 270 263 258 254 251 250 244 231 235 239 238 240 238 234 224 217 216 212 209 208 205 201 197 194 192 189 185 183 183
344 337 331 330 333 328 324 322 319 316 306 293 281 274 270 267 263 258 253 245 245 245 234 227 231 235 237 235 228 220 219 214 209 206 205 202 198 196 196 194 192 190 190
342 337 331 332 332 329 327 324 322 318 309 300 286 274 265 263 262 259 253 246 240 238 243 227 219 229 234 236 231 225 222 219 212 207 206 204 200 199 200 199 197 196 196
338 336 332 333 333 329 329 327 322 318 310 300 291 277 266 259 258 257 256 248 239 235 235 240 232 227 226 233 233 227 222 220 216 211 207 205 202 201 201 201 199 198 198
334 333 332 331 331 328 325 323 324 319 316 313 300 282 264 253 250 250 250 249 241 234 231 233 236 237 225 220 227 224 219 219 219 216 213 208 204 201 200 200 198 197 197
330 330 330 329 328 325 321 322 322 316 311 313 309 298 272 257 243 241 242 242 242 236 233 232 233 233 234 228 217 215 216 217 218 217 216 213 209 204 201 199 196 196 196
327 325 325 325 323 322 317 316 314 309 307 304 289 285 280 266 266 243 236 238 237 235 233 233 234 235 233 230 224 209 211 215 217 218 218 216 213 208 202 196 194 194 193
325 323 324 324 322 319 314 311 308 301 297 293 292 272 273 287 280 265 242 233 238 239 235 233 234 233 232 228 223 217 204 212 218 219 219 217 215 211 204 196 192 191 190
327 325 325 324 321 317 312 307 302 295 287 282 279 280 284 280 269 263 260 252 237 236 236 231 230 231 230 227 223 218 204 211 218 219 218 215 214 212 206 198 193 189 187
327 327 326 323 319 315 311 307 301 293 285 276 272 270 267 266 265 259 254 253 253 244 231 227 226 227 228 227 225 212 204 212 220 222 220 215 213 211 206 198 192 187 181
327 327 325 321 317 315 312 310 307 299 288 278 271 267 263 260 263 266 263 258 256 253 236 227 225 221 223 225 224 204 209 213 219 222 221 215 211 210 205 197 189 183 175
324 323 322 319 317 316 314 315 314 308 299 289 275 266 262 259 257 256 256 257 254 250 241 236 222 215 215 220 223 202 216 213 218 220 220 216 210 208 200 190 183 177 167
324 325 323 321 319 320 318 318 320 318 312 301 284 268 260 257 254 254 251 248 249 247 242 238 225 213 208 212 207 212 219 204 207 212 214 212 206 196 182 169 165 157 144
328 327 327 325 323 324 323 320 324 326 322 314 302 281 267 260 256 252 248 244 241 245 249 241 229 216 198 200 198 206 197 161 165 168 172 171 165 156 148 144 143 141 142
331 331 330 328 328 330 327 324 330 334 334 331 330 324 317 302 282 265 254 245 239 236 242 243 231 214 198 190 184 185 160 149 141 133 131 129 129 130 132 135 138 141 143
334 333 332 331 333 333 331 325 335 341 341 341 342 346 348 339 320 298 273 253 242 232 233 230 210 203 200 187 176 166 149 138 135 132 127 125 124 125 128 130 134 139 140
337 337 335 334 335 333 331 327 335 346 345 346 347 350 349 347 340 321 297 268 248 235 228 224 204 191 185 173 165 153 141 133 131 134 131 133 135 138 140 141 142 142 141
339 339 337 336 335 333 332 329 339 349 349 349 350 352 351 352 346 336 319 299 265 235 221 213 196 180 169 167 163 151 142 138 139 142 136 138 139 142 147 148 148 147 145
339 339 339 338 338 336 334 337 345 350 349 350 353 354 355 1 1 7 11 358 328 270 221 196 184 171 165 167 169 160 146 137 134 146 146 147 147 146 144 144 146 147 144
338 339 338 338 339 338 335 344 354 347 350 353 354 357 1 5 7 12 24 33 37 34 17 38 133 136 134 141 149 153 145 146 140 142 137 135 148 148 152 157 153 148 144
335 336 335 337 337 336 338 342 349 348 353 357 359 3 9 11 16 14 23 30 34 39 41 47 55 52 58 40 108 153 163 154 126 122 131 111 114 117 114 124 138 140 137
331 332 333 336 336 337 339 340 344 346 356 1 5 10 20 23 26 27 29 35 37 38 40 45 52 50 49 40 35 63 107 101 88 45 75 114 97 83 78 88 108 120 124
329 330 332 336 337 338 340 340 347 352 4 6 11 22 32 35 34 35 34 37 37 33 36 44 48 47 45 46 41 52 99 127 111 55 30 94 112 89 66 57 75 100 110
330 330 332 337 340 342 343 348 2 3 10 9 14 30 43 44 40 40 38 38 39 34 35 38 40 40 42 41 41 37 32 84 101 87 31 80 119 117 91 53 44 68 91
Height
1520 1517 1514 1511 1508 1506 1504 1503 1502 1500 1499 1499 1498 1498 1498 1499 1499 1499 1499 1497 1499 1501 1503 1505 1507 1510 1513 1516 1518 1520 1523 1526 1528 1530 1532 1534 1537 1539 1541 1544 1546 1548 1550
1516 1512 1509 1506 1503 1501 1499 1497 1496 1495 1494 1494 1493 1493 1492 1493 1493 1493 1493 1493 1493 1494 1496 1498 1501 1504 1507 1510 1513 1516 1518 1521 1524 1526 1529 1531 1534 1536 1539 1541 1543 1545 1547
1513 1508 1504 1501 1497 1495 1493 1491 1490 1489 1488 1487 1487 1486 1486 1486 1487 1487 1488 1487 1488 1488 1490 1492 1494 1498 1501 1504 1507 1510 1513 1517 1520 1522 1525 1527 1530 1533 1535 1538 1540 1542 1544
1509 1505 1501 1497 1492 1489 1487 1485 1483 1482 1481 1481 1480 1480 1479 1479 1480 1481 1481 1481 1481 1482 1484 1486 1488 1491 1494 1498 1501 1504 1508 1511 1515 1518 1521 1524 1526 1529 1532 1535 1537 1540 1542
1505 1501 1497 1493 1488 1484 1481 1479 1477 1475 1474 1473 1473 1473 1473 1473 1473 1473 1474 1474 1475 1476 1478 1480 1482 1484 1487 1491 1495 1498 1502 1506 1509 1513 1517 1519 1522 1525 1528 1531 1534 1537 1539
1501 1497 1492 1488 1484 1480 1476 1473 1470 1468 1467 1466 1465 1465 1465 1465 1465 1466 1466 1468 1468 1469 1471 1474 1476 1478 1480 1484 1488 1492 1495 1500 1503 1508 1512 1515 1518 1521 1525 1528 1531 1534 1536
1498 1493 1488 1484 1480 1476 1471 1468 1464 1461 1460 1460 1459 1457 1457 1457 1457 1458 1459 1460 1462 1463 1464 1466 1470 1472 1474 1477 1481 1485 1489 1494 1498 1502 1506 1510 1513 1517 1520 1524 1527 1530 1533
1495 1491 1486 1480 1476 1471 1467 1463 1459 1456 1454 1455 1455 1452 1451 1450 1449 1450 1451 1452 1454 1456 1457 1459 1462 1465 1468 1471 1473 1478 1482 1487 1491 1496 1500 1504 1508 1512 1516 1519 1523 1526 1529
1492 1487 1483 1478 1472 1468 1463 1459 1455 1452 1448 1448 1450 1450 1448 1443 1443 1443 1443 1444 1446 1448 1450 1452 1454 1458 1461 1463 1466 1470 1475 1480 1485 1489 1493 1497 1502 1506 1510 1514 1518 1522 1526
1487 1483 1478 1474 1468 1464 1459 1455 1452 1448 1444 1441 1441 1442 1443 1442 1441 1437 1437 1437 1438 1440 1443 1444 1447 1450 1453 1456 1458 1462 1467 1472 1477 1482 1486 1491 1495 1500 1504 1509 1513 1517 1521
1483 1478 1473 1468 1463 1459 1454 1450 1447 1443 1440 1436 1434 1433 1433 1433 1434 1434 1432 1433 1433 1433 1435 1437 1439 1442 1445 1448 1451 1454 1459 1464 1469 1474 1479 1484 1488 1493 1498 1502 1507 1511 1516
1478 1473 1468 1463 1458 1454 1450 1445 1441 1437 1434 1430 1427 1425 1426 1426 1427 1427 1427 1427 1427 1428 1429 1430 1432 1434 1437 1440 1443 1447 1452 1456 1461 1466 1471 1477 1482 1487 1491 1496 1500 1505 1510
1474 1468 1463 1458 1454 1449 1445 1440 1435 1430 1427 1424 1420 1418 1417 1417 1419 1421 1421 1421 1421 1422 1423 1423 1425 1427 1430 1432 1436 1439 1444 1448 1453 1458 1463 1468 1474 1480 1485 1490 1494 1498 1503
1472 1466 1460 1455 1450 1445 1440 1435 1429 1424 1420 1416 1413 1411 1408 1408 1411 1412 1414 1415 1415 1416 1416 1417 1419 1420 1423 1426 1429 1433 1436 1440 1445 1450 1455 1460 1467 1472 1478 1483 1488 1492 1497
1470 1463 1457 1452 1447 1442 1436 1431 1425 1418 1413 1409 1406 1403 1401 1401 1402 1404 1406 1408 1410 1409 1409 1412 1413 1414 1417 1420 1423 1426 1429 1433 1437 1442 1447 1453 1459 1465 1471 1476 1482 1486 1491
1467 1460 1454 1449 1443 1438 1433 1428 1422 1414 1408 1403 1399 1396 1395 1394 1395 1396 1397 1399 1401 1403 1403 1405 1407 1409 1411 1414 1417 1421 1423 1426 1430 1435 1440 1446 1451 1457 1464 1469 1475 1480 1486
1464 1457 1451 1445 1440 1435 1429 1425 1420 1412 1404 1398 1394 1391 1389 1389 1388 1389 1390 1391 1393 1395 1396 1399 1401 1403 1406 1409 1412 1416 1419 1422 1426 1430 1435 1440 1445 1451 1458 1463 1470 1476 1481
1462 1456 1449 1443 1438 1432 1426 1422 1417 1410 1402 1396 1391 1387 1385 1383 1382 1381 1382 1383 1385 1387 1390 1392 1394 1398 1401 1404 1408 1412 1415 1419 1423 1428 1432 1437 1443 1448 1453 1459 1465 1471 1478
1461 1454 1448 1442 1436 1430 1424 1419 1415 1409 1402 1395 1390 1386 1382 1379 1377 1375 1375 1376 1377 1379 1381 1385 1388 1391 1394 1398 1403 1407 1412 1416 1421 1426 1431 1436 1442 1447 1452 1457 1463 1470 1475
1460 1453 1447 1441 1435 1429 1422 1418 1413 1407 1401 1395 1390 1385 1381 1378 1375 1372 1370 1370 1370 1372 1373 1377 1380 1384 1387 1392 1397 1402 1408 1414 1420 1425 1431 1436 1442 1448 1454 1458 1463 1469 1474
1459 1453 1446 1440 1434 1428 1422 1418 1412 1407 1401 1396 1390 1386 1381 1378 1374 1371 1368 1366 1365 1365 1366 1369 1373 1377 1380 1386 1391 1397 1403 1410 1418 1424 1429 1435 1441 1447 1453 1458 1464 1469 1473
1458 1451 1445 1439 1433 1427 1421 1417 1412 1407 1402 1397 1392 1387 1382 1378 1374 1371 1368 1365 1362 1361 1362 1364 1366 1371 1375 1380 1386 1393 1399 1406 1415 1422 1427 1434 1441 1446 1451 1457 1462 1467 1472
1457 1450 1444 1438 1433 1427 1421 1416 1412 1408 1404 1399 1394 1390 1385 1380 1376 1373 1369 1366 1363 1361 1361 1362 1363 1367 1370 1376 1383 1391 1397 1404 1410 1418 1425 1431 1438 1444 1450 1455 1461 1465 1470
1456 1450 1444 1438 1433 1427 1421 1416 1412 1409 1405 1401 1397 1393 1389 1384 1381 1377 1374 1370 1367 1364 1363 1363 1364 1366 1369 1375 1382 1388 1394 1401 1408 1415 1422 1429 1435 1441 1447 1453 1459 1463 1467
1455 1450 1444 1439 1433 1427 1422 1417 1412 1409 1407 1403 1399 1396 1393 1389 1386 1382 1379 1376 1372 1370 1368 1368 1368 1369 1372 1377 1383 1390 1396 1401 1406 1413 1419 1425 1431 1438 1444 1449 1454 1459 1464
1456 1450 1445 1439 1434 1429 1423 1418 1413 1411 1409 1406 1402 1400 1397 1394 1391 1387 1384 1381 1378 1376 1375 1374 1373 1374 1376 1380 1385 1390 1395 1400 1404 1411 1416 1422 1427 1433 1440 1445 1450 1454 1459